Showing default

COSMOS 2488, 39483

Orbit data source: Space-Track

COSMOS 2488, 39483 is a payload satellite owned by VVKO (CIS) in LEO that was launched on Wed, 25 Dec 2013 UTC via an ROKOT launch vehicle from the Plesetsk Missile And Space Complex (PKMTR). Payload-class satellites include a variety of spacecraft equipped with specific instruments for various scientific and technological missions. These include communications satellites like Starlink; space stations such as the ISS; scientific satellites like the Hubble; Earth observation satellites from companies like Planet Labs, Umbra, and HawkEye 360; GPS; miniature CubeSats for education and research; and military/defense satellites.

Loading next visibility...
Identifier
39483, 2013-076A
Orbit
LEO
Last TLE update
12 hours ago
Origin
Manufacturer
Resehetnev ISS
Mission
Operational Civil Communications
Bus & Motor
STRELA-3M, Unknown motor
Mass
280 kg wet, 280 kg dry
Launch date (UTC)
2013-12-25 (11 years ago)
Launch vehicle
ROKOT
Launch site
Plesetsk Missile And Space Complex (PKMTR)
Object type
Payload
Rocket body
Debris
Shape & HBR
Cyl + 1 Ant, 7 m
Radar Cross Section
1.583 m², Large (>1 m²)

Expand to show TLE details & history

TLE from 12 hours ago
0 COSMOS 2488
1 39483U 13076A   25128.85968810  .00000016  00000-0  46146-4 0  9999
2 39483  82.4856  60.6640 0017898 257.4816 102.4262 12.42862139515668
Epoch: 2025-05-08T20:37Z
Definitive object data (Epoch: 2025-05-08T20:37:57.051Z)
Latitude
0.00001°
Longitude
-115.74784°
Altitude
1,500.249 km
Speed
7.113 km/s
True Right ascension
04h 02m 39s
True Declination
0° 00' 00"
Sunlit
Object was in daylight at TLE epoch
Visualization TLE readout
Latitude
45.33145°
Longitude
56.30165°
Altitude
1,508.734 km
Speed
7.111 km/s
Apparent Right ascension
11h 24m 33s
Apparent Declination
33° 59' 45"
Sunlit
Object is in daylight
Visualization observer readout
Local Sidereal Time
17:06:01
Azimuth
295.029° NW
Elevation
24.215°
Doppler factor
1
Orbital elements
Apogee altitude
1,505.931 km
Perigee altitude
1,477.76 km
Semi-major axis
7,869.982 km
Eccentricity
0.0017898
Inclination
82.4856°
RAAN
60.664°
Arg. of periapsis
257.4816°
True anomaly
102.62639°
Mean anomaly
102.4262°
Eccentric anomaly
102.52631°
Mean motion
3.10873 °/min
BSTAR
0.000046146
Orbital period
115.8 mins
Loading maneuver chart data...
Loading SW <> Apogee altitude chart data...
Loading historical data...
Loading historical data...
Loading historical data...
Loading historical data...
Loading historical data...
Loading historical data...
Loading historical data...

COSMOS 2488 Visibility forecast

Observer location: undefined°, undefined°

Span
Click to sort rows by Start time (UTC) header in descending order
Start Az.
Max El. time (UTC)
Max El. Az.
Max El.
End time (UTC)
End Az.
8 mins2025-05-09 08:56:46.401Z294.808° NW2025-05-09 08:58:46.401Z274.833° WNW23.282°2025-05-09 09:04:46.401Z229.302° WSW
5 mins2025-05-09 18:04:46.401Z88.563° E2025-05-09 18:06:46.401Z73.993° E13.288°2025-05-09 18:09:46.401Z52.859° ENE
15 mins2025-05-09 19:54:46.401Z177.356° S2025-05-09 20:01:46.401Z101.708° ESE44.318°2025-05-09 20:09:46.401Z11.001° NNE
11 mins2025-05-09 21:54:46.401Z255.225° W2025-05-09 21:59:46.401Z295.899° NW20.915°2025-05-09 22:05:46.401Z341.295° N
14 mins2025-05-10 06:05:46.401Z10.497° NNE2025-05-10 06:12:46.401Z72.849° E31.164°2025-05-10 06:19:46.401Z134.174° SE
15 mins2025-05-10 08:02:46.401Z337.733° N2025-05-10 08:09:46.401Z269.493° W36.357°2025-05-10 08:17:46.401Z201.792° SSW
|